Flag for Germany Weather past 2 weeks in Rheine, North Rhine-Westphalia, Germany

Now
66 °F

Broken clouds.


Feels Like: 66 °F
Forecast: 48 / 71 °F
Wind: 7 mph from Southeast

Location: Rheine-Bentlage


UV Index: 3 (Moderate)

Visibility: N/A


Pressure: 30.09 "Hg

Humidity: 56%

Dew point: 50 °F

Location of RheineLocation

Historic Weather in Rheine

°F

Rheine temperature yesterday

Maximum temperature yesterday: 66 °F (at 3:20 PM)
Minimum temperature yesterday: 43 °F (at 6:20 AM)
Average temperature yesterday: 55 °F

Past Weeks' High & Low Weather Summary

 TemperatureHumidityPressure
High68 °F (Apr 20, 4:20 PM)100% (Apr 8, 8:20 PM)30.48 "Hg (Apr 8, 8:20 PM)
Low30 °F (Apr 16, 5:20 AM)36% (Apr 16, 3:20 PM)29.68 "Hg (Apr 21, 1:20 PM)
Average50 °F80%30.05 "Hg
* Reported Apr 8 1:20 PM — Apr 23 1:20 PM, Rheine, Weather by CustomWeather, © 2014

Note: Actual official high and low records may vary slightly from our data, if they occured in-between our weather recording intervals... More about our weather records

Advertising

Historic Weather Conditions — Data for Previous 24 hours

 ConditionsComfort  
Time TempWeatherWind HumidityBarometerVisibility
1:20 PM
Apr 23
66 °FBroken clouds.7 mph56%30.09 "HgN/A
12:20 PM64 °FBroken clouds.6 mph56%30.12 "HgN/A
11:20 AM63 °FScattered clouds.5 mph73%30.12 "HgN/A
10:20 AM61 °FPartly sunny.2 mph83%30.12 "Hg6 mi
9:20 AM55 °FFog.3 mph100%30.09 "Hg2 mi
8:20 AM50 °FFog.No wind100%30.09 "Hg2 mi
7:20 AM46 °FFog.1 mph93%30.09 "Hg2 mi
6:20 AM43 °FFog.1 mph100%30.07 "Hg2 mi
5:20 AM43 °FFog.1 mph100%30.07 "Hg2 mi
4:20 AM45 °FQuite cool.No wind100%30.07 "Hg0 mi
3:20 AM43 °FQuite cool.1 mph100%30.04 "Hg1 mi
2:20 AM45 °FQuite cool.No wind100%30.04 "Hg1 mi
1:20 AM46 °FCool.No wind100%30.04 "Hg1 mi
12:20 AM48 °FCool.No wind100%30.01 "Hg2 mi
11:20 PM
Apr 22
50 °FCool.1 mph100%30.01 "Hg2 mi
10:20 PM52 °FCool.No wind94%29.98 "Hg2 mi
9:20 PM55 °FCool.No wind77%29.98 "Hg2 mi
8:20 PM61 °FRefreshingly cool.3 mph59%29.95 "Hg3 mi
7:20 PM64 °FMild.10 mph52%29.92 "Hg2 mi
6:20 PM66 °FMild.3 mph52%29.89 "Hg2 mi
5:20 PM66 °FMild.7 mph56%29.89 "Hg3 mi
4:20 PM66 °FMild.5 mph56%29.89 "Hg3 mi
3:20 PM66 °FScattered clouds.5 mph56%29.86 "HgN/A
2:20 PM64 °FPartly sunny.7 mph60%29.86 "HgN/A
Weather by CustomWeather, © 2014

See weather overview